Regional Weather Roundup
Issued by NWS

Home | Current Version | Previous Version | Text Only | Print | Product List | Glossary On
Versions: 1 2 3 4 5 6 7 8 9 10 11 12 13 14 15 16 17 18 19 20 21 22 23 24 25 26 27 28 29 30 31 32 33 34 35 36 37 38 39 40 41 42 43 44 45 46 47 48 49 50
000
ASUS43 KMPX 232010
RWRMN
WEATHER ROUNDUP FOR MINNESOTA
NATIONAL WEATHER SERVICE TWIN CITIES/CHANHASSEN MN
200 PM CST FRI FEB 23 2018


NOTE: "FAIR" INDICATES FEW OR NO CLOUDS BELOW 12,000 FEET WITH NO
SIGNIFICANT WEATHER AND/OR OBSTRUCTIONS TO VISIBILITY. N/A MEANS
CURRENT SKY AND/OR WEATHER CONDITIONS ARE NOT AVAILABLE.

MNZ060>063-068>070-232100-
   Twin Cities Metro

CITY           SKY/WX    TMP DP  RH WIND       PRES   REMARKS
TWIN CITIES    FAIR      32  22  66 W9        30.19S WCI  24
ST PAUL        FAIR      31  21  66 NW12      30.20S WCI  22
CRYSTAL        FAIR      31  20  63 W8        30.18S WCI  23
BLAINE         MOSUNNY   34  21  60 W12       30.18R WCI  25
LAKEVILLE      PTSUNNY   28  21  74 W9        30.19S WCI  20
EDEN PRAIRIE   FAIR      29  21  72 SW13      30.19S WCI  19
SOUTH ST PAUL  FAIR      32  22  66 W12       30.19S WCI  23
LAKE ELMO      PTSUNNY   32  23  69 W10       30.18F WCI  24
$$
MNZ001>005-007-008-013>017-022>024-027-028-232100-
   Northwest Minnesota

CITY           SKY/WX    TMP DP  RH WIND       PRES   REMARKS
BEMIDJI        FAIR      25  16  69 W12       30.12R HAZE    WCI  14
HALLOCK        FAIR      18   9  68 W8        30.19R WCI   7
ROSEAU         FAIR      19   9  63 W13       30.12F WCI   7
WARROAD        FAIR      19  10  68 SW12      30.11S WCI   7
CROOKSTON      FAIR      16   9  73 NW9       30.21F WCI   4
FOSSTON        FAIR      21   7  53 SW9       30.17S WCI  11
DETROIT LAKES  FAIR      19  14  79 W8        30.19S WCI   9
MOORHEAD       FAIR      16   7  67 NW9       30.24S WCI   4
PARK RAPIDS    FAIR      26  19  74 W15       30.12S WCI  14
MAHNOMEN       FAIR      17   9  70 SW8       30.18S WCI   7
$$
MNZ006-009>011-018-025>026-232100-
   North Central Minnesota

CITY           SKY/WX    TMP DP  RH WIND       PRES   REMARKS
BAUDETTE       FAIR      25  14  63 W7        30.08R WCI  17
FLAG ISLAND    FAIR      19  14  79 SE7       30.08S WCI  10
INTL FALLS     FAIR      28  20  71 VRB5      30.06F WCI  23
WASKISH        CLOUDY    25  18  74 W12       30.11S WCI  14
LONGVILLE      CLOUDY    28  21  74 W8        30.11R WCI  20
GRAND RAPIDS   CLOUDY    30  22  72 W8        30.11R WCI  22
CRANE LAKE     CLOUDY    27  21  80 CALM      30.07S HAZE
ORR            FAIR      27  18  69 NW6       30.04S WCI  20
COOK             N/A     27  21  80 W8        30.07R WCI  18
WALKER         CLOUDY    28  19  69 W10       30.11S WCI  18
$$
MNZ012-019>021-037-232100-
   Northeast Minnesota

CITY           SKY/WX    TMP DP  RH WIND       PRES   REMARKS
DULUTH         PTSUNNY   31  22  69 W15       30.06R WCI  20
ELY            CLOUDY    27  19  74 W12       30.04R WCI  16
HIBBING        CLOUDY    26  20  77 NW8       30.07R WCI  18
EVELETH        CLOUDY    28  19  69 NW9       30.07R WCI  20
DULUTH HARBOR  CLOUDY    32  25  74 W13       30.11S WCI  22
TWO HARBORS    CLOUDY    36  25  64 W6G16     30.05R
SILVER BAY     PTSUNNY   34  25  69 W8        30.03R WCI  27
GRAND MARAIS     N/A     34  24  67 NW8       30.02R WCI  27
G MARAIS ARPRT CLOUDY    28  18  64 W7        29.97R WCI  21
$$
MNZ029>031-032-039>041-046>048-054>057-064-232100-
   West Central Minnesota

CITY           SKY/WX    TMP DP  RH WIND       PRES   REMARKS
FERGUS FALLS   FAIR      18  10  73 NW10      30.22S WCI   6
WHEATON        LGT SNOW  19  10  68 W10       30.26S WCI   8
MORRIS         SUNNY     21  16  79 W13       30.22S WCI   9
ALEXANDRIA     FAIR      22  17  81 W14       30.19R WCI   9
ELBOW LAKE     PTSUNNY   18  14  84 NW12      30.22R WCI   6
WADENA         FAIR      27  18  69 W10       30.15S WCI  17
GLENWOOD       FAIR      25  18  74 W12       30.20R WCI  14
APPLETON       SUNNY     25  18  74 NW5       30.25S WCI  19
BENSON         PTSUNNY   23  18  80 NW13      30.26R WCI  11
ORTONVILLE     MOSUNNY   27  18  69 NW12      30.25R WCI  16
MADISON          N/A     28  21  74 NW9       30.26S WCI  20
WILLMAR        CLOUDY    23  19  86 NW13      30.25R WCI  11
$$
MNZ033>034-036-042>043-049>051-058-059-232100-
   Central Minnesota

CITY           SKY/WX    TMP DP  RH WIND       PRES   REMARKS
ST CLOUD       FAIR      30  21  69 W10       30.17R WCI  21
SAUK CENTRE    FAIR      26  19  76 W13       30.19R WCI  15
PAYNESVILLE    FAIR      28  21  77 W9        30.20R WCI  19
AITKIN         FAIR      30  19  64 W9        30.10S WCI  22
PINE RIVER     CLOUDY    27  19  74 W8        30.15S WCI  18
BRAINERD       FAIR      32  21  64 W8        30.13S WCI  25
STAPLES        FAIR      27  18  69 W13       30.15S WCI  16
LONG PRAIRIE   FAIR      30  21  69 SW9       30.17R WCI  22
LITTLE FALLS   FAIR      32  18  55 W7        30.16S WCI  26
LITCHFIELD     FAIR      30  21  69 W7        30.20S WCI  23
BUFFALO        FAIR      30  19  63 W9        30.21R WCI  22
MAPLE LAKE     FAIR      32  22  67 W9        30.20R WCI  24
HUTCHINSON     FAIR      27  22  81 W15       30.22S WCI  15
$$
MNZ037-044-045-052-053-232100-
   East Central Minnesota

CITY           SKY/WX    TMP DP  RH WIND       PRES   REMARKS
PRINCETON      FAIR      34  21  60 W12       30.18R WCI  25
CAMBRIDGE        N/A     32  21  64 SW6       30.17R WCI  26
RUSH CITY      FAIR      33  21  60 W5        30.15S WCI  29
MOOSE LAKE     PTSUNNY   32  21  64 W6        30.10R WCI  26
HINCKLEY       FAIR      32  23  69 W8        30.14R WCI  25
CLOQUET        FAIR      30  21  69 W8        30.08R WCI  23
MCGREGOR       PTSUNNY   32  23  69 SW6       30.10S WCI  26
$$
MNZ071>073-080-081-089-090-097-098-232100-
   Southwest Minnesota

CITY           SKY/WX    TMP DP  RH WIND       PRES   REMARKS
MONTEVIDEO     MOSUNNY   30  19  64 NW13      30.25S WCI  20
GRANITE FALLS  MOSUNNY   27  21  78 W12       30.28R WCI  17
CANBY          SUNNY     27  20  75 NW9       30.27S WCI  18
MARSHALL       MOSUNNY   27  20  75 NW10      30.26S WCI  17
REDWOOD FALLS  CLOUDY    25  20  81 W13       30.25R WCI  14
OLIVIA         CLOUDY    27  21  80 NW13      30.24R WCI  16
PIPESTONE      PTSUNNY   25  19  80 NW9       30.23S WCI  15
WORTHINGTON    SUNNY     28  22  78 W9        30.24S WCI  19
JACKSON        SUNNY     27  19  74 W9        30.24R WCI  17
TRACY          SUNNY     27  22  82 NW8       30.24S WCI  18
SLAYTON        SUNNY     25  21  82 W13       30.24R WCI  14
$$
MNZ065>067-074>077-082>085-091>093-232100-
   South Central Minnesota

CITY           SKY/WX    TMP DP  RH WIND       PRES   REMARKS
MANKATO        FAIR      27  19  74 W13       30.23S WCI  16
NEW ULM        SUNNY     23  18  80 W15       30.23F WCI  10
ST JAMES       SUNNY     27  19  74 W13       30.25F WCI  16
FAIRMONT       MOSUNNY   29  21  72 NW13      30.26R WCI  19
GLENCOE        FAIR      27  22  79 W9        30.21S WCI  18
FARIBAULT      FAIR      27  19  74 SW10      30.22R HAZE    WCI  17
OWATONNA       FAIR      25  19  80 W12       30.22R FOG     WCI  14
WASECA         CLOUDY    23  19  86 W9        30.24R FOG     WCI  13
ALBERT LEA     FAIR      25  18  74 W7        30.23R WCI  17
$$
MNZ078>079-086>088-094>096-232100-
   Southeast Minnesota

CITY           SKY/WX    TMP DP  RH WIND       PRES   REMARKS
ROCHESTER      CLOUDY    22  20  92 W12       30.20R FOG     WCI  10
RED WING       CLOUDY    28  19  69 W12G17    30.20R WCI  18
STANTON        CLOUDY    29  22  74 W9        30.20R WCI  21
DODGE CENTER   CLOUDY    21  19  93 W12       30.21R FOG     WCI   9
WINONA         PTSUNNY   30  25  80 NW9       30.20R WCI  22
AUSTIN         FAIR      25  19  80 W7        30.23R WCI  17
PRESTON        PTSUNNY   26  22  85 W13       30.21R WCI  14
$$
ABBREVIATIONS USED IN REMARKS
   TC - TEMPERATURES IN CELSIUS
  WCI - WIND CHILL INDEX
   HX - HEAT INDEX
  VSB - VISIBILITY
$$



USA.gov is the U.S. government's official web portal to all federal, state and local government web resources and services.